TimeCDT,TemperatureF,Dew PointF,Humidity,Sea Level PressureIn,VisibilityMPH,Wind Direction,Wind SpeedMPH,Gust SpeedMPH,PrecipitationIn,Events,Conditions,WindDirDegrees,DateUTC
12:13 AM,64.4,51.8,64,29.55,10.0,SSE,9.2,-,N/A,,Clear,150,2013-10-01 05:13:00
12:33 AM,66.2,51.8,60,29.55,10.0,SSE,8.1,-,N/A,,Clear,160,2013-10-01 05:33:00
12:53 AM,66.2,51.8,60,29.55,10.0,South,10.4,-,N/A,,Clear,170,2013-10-01 05:53:00
1:13 AM,66.2,51.8,60,29.55,10.0,South,8.1,-,N/A,,Clear,180,2013-10-01 06:13:00
1:33 AM,64.4,51.8,64,29.55,10.0,South,6.9,-,N/A,,Clear,180,2013-10-01 06:33:00
1:53 AM,64.4,51.8,64,29.55,10.0,South,8.1,-,N/A,,Clear,190,2013-10-01 06:53:00
2:13 AM,64.4,51.8,64,29.55,10.0,SSW,6.9,-,N/A,,Clear,200,2013-10-01 07:13:00
2:33 AM,62.6,51.8,68,29.56,10.0,SSW,6.9,-,N/A,,Clear,200,2013-10-01 07:33:00
2:53 AM,62.6,51.8,68,29.57,10.0,SW,8.1,-,N/A,,Clear,220,2013-10-01 07:53:00
3:14 AM,62.6,51.8,68,29.55,10.0,SW,4.6,-,N/A,,Clear,220,2013-10-01 08:14:00
3:33 AM,59.0,51.8,77,29.56,10.0,SW,5.8,-,N/A,,Clear,230,2013-10-01 08:33:00
3:53 AM,62.6,53.6,72,29.60,10.0,West,11.5,-,N/A,,Clear,270,2013-10-01 08:53:00
4:13 AM,62.6,51.8,68,29.61,10.0,WNW,12.7,17.3,N/A,,Clear,300,2013-10-01 09:13:00
4:33 AM,62.6,51.8,68,29.64,10.0,WNW,11.5,-,N/A,,Clear,290,2013-10-01 09:33:00
4:53 AM,62.6,48.2,59,29.66,10.0,WNW,18.4,24.2,N/A,,Clear,300,2013-10-01 09:53:00
5:13 AM,60.8,48.2,63,29.68,10.0,WNW,15.0,24.2,N/A,,Clear,300,2013-10-01 10:13:00
5:33 AM,59.0,48.2,67,29.69,10.0,WNW,13.8,-,N/A,,Clear,290,2013-10-01 10:33:00
5:53 AM,57.2,46.4,67,29.71,10.0,West,16.1,20.7,N/A,,Clear,280,2013-10-01 10:53:00
6:13 AM,57.2,46.4,67,29.72,10.0,WNW,12.7,18.4,N/A,,Clear,290,2013-10-01 11:13:00
6:33 AM,55.4,46.4,72,29.74,10.0,West,12.7,-,N/A,,Clear,280,2013-10-01 11:33:00
6:53 AM,55.4,48.2,77,29.75,10.0,West,10.4,-,N/A,,Clear,270,2013-10-01 11:53:00
7:13 AM,53.6,48.2,82,29.76,10.0,West,11.5,-,N/A,,Clear,270,2013-10-01 12:13:00
7:33 AM,53.6,48.2,82,29.78,10.0,West,11.5,-,N/A,,Clear,260,2013-10-01 12:33:00
7:54 AM,53.6,48.2,82,29.80,10.0,WSW,10.4,-,N/A,,Clear,250,2013-10-01 12:54:00
8:13 AM,53.6,46.4,77,29.81,10.0,West,12.7,-,N/A,,Clear,260,2013-10-01 13:13:00
8:33 AM,55.4,46.4,72,29.81,10.0,West,12.7,-,N/A,,Clear,260,2013-10-01 13:33:00
8:54 AM,55.4,46.4,72,29.82,10.0,West,11.5,-,N/A,,Clear,270,2013-10-01 13:54:00
9:13 AM,57.2,44.6,63,29.83,10.0,West,11.5,-,N/A,,Clear,260,2013-10-01 14:13:00
9:33 AM,57.2,44.6,63,29.84,10.0,West,12.7,19.6,N/A,,Clear,260,2013-10-01 14:33:00
9:53 AM,59.0,44.6,59,29.85,10.0,West,11.5,-,N/A,,Clear,270,2013-10-01 14:53:00
10:13 AM,60.8,42.8,52,29.86,10.0,West,15.0,19.6,N/A,,Clear,270,2013-10-01 15:13:00
10:33 AM,62.6,42.8,48,29.87,10.0,West,10.4,-,N/A,,Clear,260,2013-10-01 15:33:00
10:53 AM,62.6,42.8,48,29.87,10.0,WSW,16.1,-,N/A,,Clear,250,2013-10-01 15:53:00
11:13 AM,64.4,42.8,45,29.87,10.0,West,12.7,18.4,N/A,,Clear,260,2013-10-01 16:13:00
11:33 AM,64.4,37.4,37,29.88,10.0,West,13.8,21.9,N/A,,Clear,270,2013-10-01 16:33:00
11:53 AM,66.2,37.4,35,29.88,10.0,WSW,17.3,21.9,N/A,,Clear,250,2013-10-01 16:53:00
12:13 PM,66.2,37.4,35,29.88,10.0,West,15.0,25.3,N/A,,Clear,260,2013-10-01 17:13:00
12:33 PM,66.2,35.6,32,29.88,10.0,West,19.6,24.2,N/A,,Clear,260,2013-10-01 17:33:00
12:53 PM,68.0,35.6,30,29.88,10.0,West,20.7,25.3,N/A,,Clear,270,2013-10-01 17:53:00
1:13 PM,69.8,33.8,27,29.88,10.0,West,17.3,25.3,N/A,,Clear,260,2013-10-01 18:13:00
1:33 PM,68.0,33.8,28,29.88,10.0,WSW,19.6,27.6,N/A,,Clear,250,2013-10-01 18:33:00
1:53 PM,69.8,32.0,25,29.88,10.0,West,20.7,25.3,N/A,,Clear,270,2013-10-01 18:53:00
2:13 PM,69.8,33.8,27,29.88,10.0,West,21.9,26.5,N/A,,Clear,260,2013-10-01 19:13:00
2:33 PM,69.8,33.8,27,29.88,10.0,West,19.6,23.0,N/A,,Clear,260,2013-10-01 19:33:00
2:53 PM,69.8,33.8,27,29.89,10.0,West,18.4,24.2,N/A,,Clear,270,2013-10-01 19:53:00
3:13 PM,69.8,33.8,27,29.89,10.0,West,16.1,24.2,N/A,,Clear,260,2013-10-01 20:13:00
3:33 PM,69.8,33.8,27,29.89,10.0,West,18.4,21.9,N/A,,Clear,260,2013-10-01 20:33:00
3:53 PM,69.8,33.8,27,29.89,10.0,West,17.3,25.3,N/A,,Clear,270,2013-10-01 20:53:00
4:14 PM,69.8,33.8,27,29.90,10.0,West,16.1,27.6,N/A,,Clear,270,2013-10-01 21:14:00
4:33 PM,69.8,33.8,27,29.90,10.0,West,20.7,25.3,N/A,,Clear,280,2013-10-01 21:33:00
4:53 PM,69.8,33.8,27,29.90,10.0,WSW,12.7,21.9,N/A,,Clear,250,2013-10-01 21:53:00
5:13 PM,69.8,33.8,27,29.90,10.0,West,13.8,19.6,N/A,,Clear,270,2013-10-01 22:13:00
5:33 PM,69.8,35.6,28,29.90,10.0,West,11.5,-,N/A,,Clear,260,2013-10-01 22:33:00
5:53 PM,68.0,33.8,28,29.91,10.0,West,10.4,19.6,N/A,,Clear,260,2013-10-01 22:53:00
6:13 PM,66.2,33.8,30,29.91,10.0,West,9.2,-,N/A,,Clear,270,2013-10-01 23:13:00
6:33 PM,64.4,33.8,32,29.91,10.0,West,8.1,-,N/A,,Clear,260,2013-10-01 23:33:00
6:53 PM,60.8,37.4,42,29.92,10.0,WSW,5.8,-,N/A,,Clear,250,2013-10-01 23:53:00
7:13 PM,60.8,37.4,42,29.92,10.0,WSW,4.6,-,N/A,,Clear,240,2013-10-02 00:13:00
7:33 PM,59.0,37.4,45,29.93,10.0,WSW,4.6,-,N/A,,Clear,240,2013-10-02 00:33:00
7:53 PM,57.2,41.0,55,29.93,10.0,WSW,5.8,-,N/A,,Clear,240,2013-10-02 00:53:00
8:13 PM,57.2,41.0,55,29.94,10.0,WSW,4.6,-,N/A,,Clear,240,2013-10-02 01:13:00
8:33 PM,55.4,41.0,58,29.94,10.0,SW,5.8,-,N/A,,Clear,230,2013-10-02 01:33:00
8:53 PM,53.6,42.8,67,29.95,10.0,SSW,6.9,-,N/A,,Clear,210,2013-10-02 01:53:00
9:13 PM,51.8,39.2,62,29.95,10.0,WSW,5.8,-,N/A,,Clear,240,2013-10-02 02:13:00
9:33 PM,53.6,39.2,58,29.95,10.0,WSW,8.1,-,N/A,,Clear,250,2013-10-02 02:33:00
9:53 PM,51.8,39.2,62,29.97,10.0,WSW,5.8,-,N/A,,Clear,240,2013-10-02 02:53:00
10:13 PM,51.8,39.2,62,29.97,10.0,WSW,9.2,-,N/A,,Clear,250,2013-10-02 03:13:00
10:33 PM,53.6,39.2,58,29.97,10.0,West,8.1,-,N/A,,Clear,260,2013-10-02 03:33:00
10:53 PM,53.6,39.2,58,29.99,10.0,WSW,6.9,-,N/A,,Clear,240,2013-10-02 03:53:00
11:13 PM,51.8,39.2,62,29.99,10.0,WSW,6.9,-,N/A,,Clear,240,2013-10-02 04:13:00
11:33 PM,50.0,39.2,66,29.99,10.0,WSW,5.8,-,N/A,,Clear,250,2013-10-02 04:33:00
11:53 PM,50.0,39.2,66,30.00,10.0,WSW,6.9,-,N/A,,Clear,240,2013-10-02 04:53:00